Hourly Data Report for August 06, 2022

ST-JOVITE
QUEBEC
Current Station Operator: ECCC - MSC

46°04'49.000" N
74°33'21.000" W
238.50 m
703GDKB
71376
WJT

Download Data

Hourly Data (August 2022)
Hourly Data Report for August 6, 2022
TIME
LST
Temp Definition
°C
Dew Point Definition
°C
Rel Hum Definition
%
Precip. Amount Definition
mm

Wind Dir Definition
10's deg

Wind Spd Definition
km/h
Visibility Definition
km
Stn Press Definition
kPa
Hmdx Definition


Wind Chill Definition


Weather Definition


00:00 14.1 14.1 100 0.0   0   99.48     LegendNANA
01:00 13.3 LegendMM LegendMM 0.0   0   99.51     LegendNANA
02:00 12.8 LegendMM LegendMM 0.0   0   99.43     LegendNANA
03:00 12.2 LegendMM LegendMM 0.0   0   99.42     LegendNANA
04:00 11.5 LegendMM LegendMM 0.0   0   99.41     LegendNANA
05:00 10.9 LegendMM LegendMM 0.0   0   99.43     LegendNANA
06:00 11.4 LegendMM LegendMM 0.0   0   99.42     LegendNANA
07:00 13.7 LegendMM LegendMM 0.0   0   99.41     LegendNANA
08:00 16.8 LegendMM LegendMM 0.0 0 1   99.41     LegendNANA
09:00 21.1 19.1 88 0.0 24 2   99.35 28   LegendNANA
10:00 25.6 18.4 64 0.0 24 6   99.34 32   LegendNANA
11:00 28.0 19.0 58 0.0 21 5   99.26 35   LegendNANA
12:00 29.0 18.3 52 0.0 25 8   99.19 35   LegendNANA
13:00 29.7 18.1 50 0.0 18 5   99.09 36   LegendNANA
14:00 30.0 17.4 47 0.0 22 7   99.02 36   LegendNANA
15:00 30.3 19.2 51 0.0 24 8   99.04 37   LegendNANA
16:00 29.8 21.6 61 0.0 25 7   98.97 39   LegendNANA
17:00 28.8 21.8 66 0.0 21 4   98.91 38   LegendNANA
18:00 27.9 22.3 72 0.0 21 4   98.84 38   LegendNANA
19:00 25.7 23.2 86 0.0   0   98.83 36   LegendNANA
20:00 23.9 22.6 93 0.0   0   98.87 34   LegendNANA
21:00 23.5 21.9 91 0.0 23 2   98.91 33   LegendNANA
22:00 23.5 21.9 91 0.0 22 3   98.90 33   LegendNANA
23:00 22.6 21.6 94 0.0   0   98.89 32   LegendNANA

Notes on Data Quality.

Legend

  • E = Estimated
  • M = Missing
  • NA = Not Available*
  • [empty] = Indicates an unobserved value
Date modified: